This is the latest recevied weather packets stored in our database for station/object IZ5TJI-3. If no packets are shown the sender has not sent any weather packets the latest 10 day(s).
| Time | Temp. | Humidity | Pressure | Rain* | Wind** | Luminosity | Snow |
|---|---|---|---|---|---|---|---|
| 1777615225 | 13.33° C | 46% | 1023.8 hPa | 0 mm | - | - | - |
| 1777614325 | 12.78° C | 46% | 1023.7 hPa | 0 mm | - | - | - |
| 1777613425 | 12.78° C | 46% | 1023.5 hPa | 0 mm | - | - | - |
| 1777612525 | 12.22° C | 46% | 1023.6 hPa | 0 mm | - | - | - |
| 1777611625 | 12.22° C | 47% | 1023.3 hPa | 0 mm | - | - | - |
| 1777610725 | 11.67° C | 47% | 1023.1 hPa | 0 mm | - | - | - |
| 1777609825 | 11.67° C | 47% | 1023.1 hPa | 0 mm | - | - | - |
| 1777608925 | 11.67° C | 47% | 1022.9 hPa | 0 mm | - | - | - |
| 1777608025 | 11.11° C | 48% | 1022.8 hPa | 0 mm | - | - | - |
| 1777607125 | 11.67° C | 46% | 1022.8 hPa | 0 mm | - | - | - |
| 1777606225 | 11.67° C | 46% | 1022.9 hPa | 0 mm | - | - | - |
| 1777605325 | 11.67° C | 45% | 1022.6 hPa | 0 mm | - | - | - |
| 1777604425 | 11.67° C | 45% | 1022.5 hPa | 0 mm | - | - | - |
| 1777603525 | 11.67° C | 44% | 1022.3 hPa | 0 mm | - | - | - |
| 1777602625 | 11.67° C | 43% | 1022.5 hPa | 0 mm | - | - | - |
| 1777601725 | 12.22° C | 41% | 1022.4 hPa | 0 mm | - | - | - |
| 1777600826 | 12.78° C | 40% | 1022.4 hPa | 0 mm | - | - | - |
| 1777599926 | 12.78° C | 39% | 1022.6 hPa | 0 mm | - | - | - |
| 1777599026 | 12.78° C | 39% | 1022.4 hPa | 0 mm | - | - | - |
| 1777598126 | 12.78° C | 39% | 1022.3 hPa | 0 mm | - | - | - |
| 1777597256 | 11.67° C | 41% | 1022.3 hPa | 0 mm | - | - | - |
| 1777597226 | 11.67° C | 41% | 1022.3 hPa | 0 mm | - | - | - |
| 1777596326 | 11.67° C | 40% | 1022.3 hPa | 0 mm | - | - | - |
| 1777595426 | 12.22° C | 39% | 1022.4 hPa | 0 mm | - | - | - |
| 1777594526 | 12.78° C | 39% | 1022.4 hPa | 0 mm | - | - | - |
* Rain latest hour (hover to see other rain measurements)
** Current wind speed in m/s (hover to see current wind gust speed)